User: anonymous   Login
Location: Caltech
(34.1382°N, 118.1253°W)
Time: 23:56:54
(UTC-07:00)
Language:

UOSAT-12 - Orbit

View from above orbital plane
View from above orbital plane
View from above satellite
View from above satellite

Ground track
Ground track

The orbit data is extracted from the following two-line orbital elements,

1 25693U 99021A   14305.13682944  .00000379  00000-0  68089-4 0  6515
2 25693 064.5566 200.6364 0049773 270.5302 249.4063 14.80114889838189
Epoch (UTC): 01 November 2014 03:17:02
Eccentricity: 0.0049773
inclination: 64.5566°
perigee height: 594 km
apogee height: 664 km
right ascension of ascending node: 200.6364°
argument of perigee: 270.5302°
revolutions per day: 14.80114889
mean anomaly at epoch: 249.4063°
orbit number at epoch: 83818

The dashed part of the orbit path shows where the satellite is in the earth's shadow,  

DLR